User: anonymous   Login
Location: Irma
(52.9170°N, 111.2330°W)
Time: 10:51:54
(UTC-06:00)
Language:

Meteor 1-24 Rocket - Orbit

View from above orbital plane
View from above orbital plane
View from above satellite
View from above satellite

Ground track
Ground track

The orbit data is extracted from the following two-line orbital elements,

1 08800U 76032B   15089.50174163  .00000337  00000-0  17739-3 0  9997
2 08800 081.2483 284.9704 0093362 318.3159 041.0921 14.10014303  4076
Epoch (UTC): 30 March 2015 12:02:30
Eccentricity: 0.0093362
inclination: 81.2483°
perigee height: 792 km
apogee height: 927 km
right ascension of ascending node: 284.9704°
argument of perigee: 318.3159°
revolutions per day: 14.10014303
mean anomaly at epoch: 41.0921°
orbit number at epoch: 407

The dashed part of the orbit path shows where the satellite is in the earth's shadow,  

DLR